Overview Statistics Trail Chart Weather Telemetry Raw packets
 

This is the latest recevied weather packets stored in our database for station/object N7IGG. If no packets are shown the sender has not sent any weather packets the latest 10 day(s).

<< 13 14 15 16 17 18 19 >>
Time Temp. Humidity Pressure Rain* Wind** Luminosity Snow
1778100520 12.78° C 83% 1021.1 hPa 0 mm - 199 W/m² -
1778100218 12.78° C 84% 1020.9 hPa 0 mm - 180 W/m² -
1778099915 12.78° C 84% 1021.1 hPa 0 mm - 170 W/m² -
1778099612 12.78° C 84% 1021 hPa 0 mm - 171 W/m² -
1778099309 12.78° C 84% 1021.1 hPa 0 mm - 172 W/m² -
1778099006 12.78° C 85% 1021.2 hPa 0 mm - 184 W/m² -
1778098703 12.78° C 85% 1021 hPa 0 mm - 239 W/m² -
1778098400 12.78° C 85% 1021.1 hPa 0 mm - 517 W/m² -
1778098097 12.78° C 85% 1021.2 hPa 0 mm - 190 W/m² -
1778097793 12.78° C 85% 1021.1 hPa 0 mm - 219 W/m² -
1778097489 12.78° C 86% 1021.1 hPa 0 mm - 224 W/m² -
1778097186 12.78° C 85% 1021 hPa 0 mm - 225 W/m² -
1778096884 12.78° C 84% 1021.1 hPa 0 mm - 259 W/m² -
1778096580 12.78° C 85% 1020.9 hPa 0 mm - 223 W/m² -
1778096278 12.22° C 86% 1020.9 hPa 0 mm - 208 W/m² -
1778095974 12.78° C 86% 1021.1 hPa 0 mm - 191 W/m² -
1778095670 12.78° C 86% 1020.9 hPa 0 mm - 169 W/m² -
1778095367 12.78° C 87% 1020.8 hPa 0 mm - 150 W/m² -
1778095064 12.78° C 87% 1020.8 hPa 0 mm - 150 W/m² -
1778094760 12.78° C 88% 1020.8 hPa 0 mm - 170 W/m² -
1778094458 12.78° C 89% 1020.7 hPa 0 mm - 197 W/m² -
1778094154 12.78° C 90% 1020.7 hPa 0 mm - 150 W/m² -
1778093851 12.22° C 90% 1020.6 hPa 0 mm - 142 W/m² -
1778093547 12.22° C 91% 1020.7 hPa 0 mm - 147 W/m² -
1778093245 12.22° C 92% 1020.7 hPa 0 mm - 126 W/m² -

* Rain latest hour (hover to see other rain measurements)
** Current wind speed in m/s (hover to see current wind gust speed)